Terminal Aerodrome Forecast
Issued by NWS

Home | Current Version | Previous Version | Text Only | Print | Product List | Glossary On
Versions: 1 2 3 4 5 6 7 8 9 10 11 12 13 14 15 16 17 18 19 20 21
922
FTUS43 KDTX 071125
TAFMBS
TAF
KMBS 071125Z 0712/0812 18007KT P6SM OVC100
     FM071700 20012G20KT P6SM OVC080
     FM072200 22010KT P6SM SCT035 OVC050
     FM080100 24007KT P6SM SCT025 OVC035=

USA.gov is the U.S. government's official web portal to all federal, state and local government web resources and services.